INMARSAT 4-F3

Last updated on Sun Jun 21 2026 00:03:04 GMT+0000 (Coordinated Universal Time)

1 33278U 08039A 26171.35461541 -.00000147 00000+0 00000+0 0 9990 2 33278 4.2956 31.6330 0002747 59.7887 206.8106 1.00272478 46577
UTC large
Height (km)
Speed (km/s)
/
Latitude / Longitude
Inclination (degrees)
Orbital Period (minutes)
Azimuth
Elevation
Range (km)
Doppler Factor

Next 0 passes for location: London (51.5072 / 0.1276)

No passes found over London.
INMARSAT 4-F3